Regional Weather Roundup
Issued by NWS Upton, NY

Home | Current Version | Previous Version | Text Only | Print | Product List | Glossary On
Versions: 1 2 3 4 5 6 7 8 9 10 11 12 13 14 15 16 17 18 19 20 21 22 23 24 25 26 27 28 29 30 31 32 33 34 35 36 37 38 39 40 41 42 43 44 45
000
ASUS41 KOKX 280107
RWROKX

REGIONAL WEATHER ROUNDUP
NATIONAL WEATHER SERVICE NEW YORK NY
900 PM EDT MON APR 27 2015

NOTE: "FAIR" INDICATES FEW OR NO CLOUDS BELOW 12,000 FEET WITH NO
SIGNIFICANT WEATHER AND/OR OBSTRUCTIONS TO VISIBILITY.

NYZ071-072-176-178-NJZ106-104-280200-
NEW YORK CITY METRO AREA


CITY           SKY/WX    TMP DP  RH WIND       PRES   REMARKS
CENTRAL PARK   CLOUDY    57  31  37 MISG      29.73R
LAGUARDIA APRT CLOUDY    56  33  42 N16G29    29.69R
KENNEDY INTL   MOCLDY    59  30  33 NW21G30   29.69R
NEWARK/LIBERTY MOCLDY    56  32  40 NW22      29.71R
BRNX BOT. GARD   N/A     55  32  41 NW17      29.72R
TETERBORO      CLOUDY    56  32  40 NW15G24   29.70R
$$

NYZ177-179-078>081-280200-
LONG ISLAND NEW YORK

CITY           SKY/WX    TMP DP  RH WIND       PRES   REMARKS
FARMINGDALE    CLOUDY    57  34  41 N10G20    29.68R
ISLIP          CLOUDY    55  36  48 N18G25    29.65R
SHIRLEY        CLOUDY    55  37  50 N17G25    29.66R
WESTHAMPTON    CLOUDY    55  36  48 N16G24    29.65R
MONTAUK POINT    N/A     52  38  58 NW10      29.63R
$$

NYZ052-065-067-280200-
HUDSON VALLEY

CITY           SKY/WX    TMP DP  RH WIND       PRES   REMARKS
WHITE PLAINS   MOCLDY    54  33  45 N20G26    29.68R
NEWBURGH       MOCLDY    52  37  58 N12       29.73R
MONTGOMERY     MOCLDY    52  35  52 NW10G22   29.73R
POUGHKEEPSIE   CLOUDY    54  36  50 NW8       29.71R
ALBANY         MOCLDY    51  39  63 NW12      29.74R
$$

NJZ001-105-106-008-010-013-015-019>022-104-280200-
NEW JERSEY

CITY           SKY/WX    TMP DP  RH WIND       PRES   REMARKS
NEWARK/LIBERTY MOCLDY    56  32  40 NW22      29.71R
TETERBORO      CLOUDY    56  32  40 NW15G24   29.70R
CALDWELL       CLOUDY    54  32  43 NW16      29.73R
MORRISTOWN     MOCLDY    54  32  43 NW8G21    29.74R
SOMERVILLE     FAIR      52  31  44 NW9       29.74R
SUSSEX         MOCLDY    51  33  50 VRB6      29.76R
ANDOVER          N/A     49  33  54 N10G17    29.76R
TRENTON        PTCLDY    53  31  42 NW17      29.74R
MILLVILLE      CLOUDY    55  32  41 NW8       29.77R
ATLANTIC CITY  CLOUDY    54  32  43 W8        29.74R
WRIGHTSTOWN    CLOUDY    55  32  42 NW13G18   29.72R
TOMS RIVER     CLOUDY    55  32  41 NW14      29.73R
BELMAR         CLOUDY    55  30  38 NW14G20   29.71R
$$

PAZ047>061-062-071-280200-
EASTERN PENNSYLVANIA

CITY           SKY/WX    TMP DP  RH WIND       PRES   REMARKS
PHILADELPHIA   MOCLDY    57  30  35 NW14      29.77R
ALLENTOWN      CLOUDY    51  32  48 N16G23    29.80R
SCRANTON       CLOUDY    48  33  56 NW8       29.81R
$$

CTZ002-004>006-009-010-012-RIZ004-006-007-MAZ004-011-015-280200-
SOUTHERN NEW ENGLAND
 IN CT

CITY           SKY/WX    TMP DP  RH WIND       PRES   REMARKS
BRADLEY INTL   CLOUDY    53  37  54 N15G23    29.66R
HARTFORD       CLOUDY    53  37  54 N14G24    29.67R
DANBURY        CLOUDY    51  36  56 N12G28    29.71R
WTRBRY/OXFORD  CLOUDY    50  36  57 N16       29.69R
BRIDGEPORT     CLOUDY    55  39  54 N15G24    29.67R
MERIDEN        CLOUDY    54  36  50 NW12G22   29.66R
NEW HAVEN      CLOUDY    55  37  50 N13G28    29.66R
CHESTER        CLOUDY    54  36  50 N15G22    29.65R
GROTON         CLOUDY    54  35  48 N15G22    29.62R
WILLIMANTIC    CLOUDY    53  37  54 N13G21    29.64R

 IN RI

CITY           SKY/WX    TMP DP  RH WIND       PRES   REMARKS
PROVIDENCE     CLOUDY    53  38  56 NW8       29.60S
BLOCK ISLAND   CLOUDY    52  36  54 N14G20    29.61R
WESTERLY       CLOUDY    54  36  50 N21G29    29.62R

 IN MA

CITY           SKY/WX    TMP DP  RH WIND       PRES   REMARKS
BOSTON         PTCLDY    52  38  58 NW14      29.59R
WORCESTER      PTCLDY    48  37  65 NW15G24   29.61S
WESTFIELD      CLOUDY    52  37  56 NW14      29.66R
PROVINCETOWN   CLOUDY   N/A N/A N/A N12G20    29.57R
NANTUCKET      CLOUDY    45  40  82 W7        29.55F
$$

ANZ330-335-338-340-345-350-353-355-280200-
COASTAL MARINE OBSERVATIONS


STATION/POSITION TIME  SKY/WX   TEMP    WIND        PRES    VSBY  WAVE
                                AIR SEA DIR/SP/G                  HT/PER
                 (UTC)          (F)     (DEG/KT/KT) (MB)    (MI)  (FT/S)
NY HARB ENTRANCE 0050            52 47  300/ 16/ 19 1004.6          2/ 9
4S FIRE IS       0003               45                N/A           2/ 8
20S FIRE ISLAND  0050            49 44  290/ 12/ 14 1004.5          2/ 8
23SW MTP         0050            49 44  330/ 12/ 14 1002.8          2/10
HUDSON CANYON    NOT AVBL
EXECUTION ROCKS  NOT AVBL
WESTERN LI SOUND NOT AVBL
CENTRAL LI SOUND NOT AVBL
EASTERN LI SOUND 0000            53     350/ 17/ 23   N/A
ROBBINS REEF     0000            57     320/ 16/ 29 1003.9
$$


>>>>>>>>>>>>>>>>>>>>>>>>>>>> KEY <<<<<<<<<<<<<<<<<<<<<<<<<<<
>                                                          <
>     SKY/WX - SKY CONDITION/PRESENT WEATHER               <
>     TMP    - TEMPERATURE IN FAHRENHEIT                   <
>     DP     - DEWPOINT IN FAHRENHEIT                      <
>     RH     - RELATIVE HUMIDITY IN PERCENT                <
>     WIND   - DIRECTION AND SPEED IN MPH                  <
>     PRES   - MEAN SEA LEVEL PRESSURE IN INCHES OF HG     <
>     WCI    - WIND CHILL INDEX                            <
>     VSB    - VISIBILITY IN MILES                         <
>     HX     - HEAT INDEX                                  <
>     TC     - TEMPERATURE IN CELSIUS                      <
>     VRB    - VARIABLE WIND DIRECTION                     <
>                                                          <
>>>>>>>>>>>>>>>>>>>>>>>>>>>> KEY <<<<<<<<<<<<<<<<<<<<<<<<<<<





USA.gov is the U.S. government's official web portal to all federal, state and local government web resources and services.